Погода в Косинском

Россия / Владимирская область     56°30′38″N   39°34′16″E
темп.,
°C
ветер,
м/с
пор.,
м/с
влажн.,
%
обл.,
%
осадки,
мм/ч
давл.,
гПа
погр.,
м
21 октября, чт
чт2100:00+1ю91997100 4.2 1005757
03:00+3ююз102096100 6.5 1000674
06:00+6юз91897100 0.4 997637
09:00+7юз91995100 2.4 996726
12:00+10зюз91887100 0.0 996876
15:00+11зюз7158496 0.0 997869
18:00+11юз71490100 0.0 997630
21:00+10юз71591100 0.0 996538
22 октября, пт
пт2200:00+9ююз71587100 0.0 993559
03:00+10ююз81782100 0.0 991690
06:00+10юз91780100 0.0 991818
09:00+11юз9157861 0.0 9911178
12:00+11зюз9146824 0.1 9931351
15:00+10зюз11186726 0.4 9941577
18:00+7зюз916695 0.0 9981185
21:00+6зюз8156998 0.0 10001097
23 октября, сб
сб2300:00+6зюз8147355 0.0 10001023
03:00+6юз71374100 0.0 10011153
06:00+5юз7137899 0.0 1001950
09:00+5юз71279100 0.0 10021068
12:00+7юз7116775 0.0 10021086
15:00+6юз6106991 0.1 10031242
18:00+5юз7117699 0.1 10041047
21:00+4з61295100 1.2 1005800
24 октября, вс
вс2400:00+4зюз6118354 0.1 1006645
03:00+3зюз51084100 0.1 1007482
06:00+2зюз51188100 0.0 1007530
09:00+3зюз4896100 0.2 1008512
12:00+2з4796100 0.6 1009501
15:00+2сз5994100 0.9 1011550
18:00+1ссз6108967 0.1 1014722
21:000ссз7118974 0.4 1017796
25 октября, пн
пн2500:00−1ссз6118146 0.1 1021792
03:00−2ссз612856 0.1 1023623
06:00−2ссз612886 0.0 1026528
09:00−1сз59845 0.0 1028473
12:00+2сз56595 0.0 1029733
15:00+2зсз465899 0.0 1030682
18:000зюз3675100 0.0 1031130
21:00−1зюз4107981 0.0 1031272